Location: Old Broadwell Mill Observatory
(33.8015°N, 85.8137°W)
Time: 07:07:31
(UTC-05:00)

Gurwin Techsat 1B - Visible Passes

Search period start: 21 September 2014 00:00
Search period end: 01 October 2014 00:00
Orbit: 812 x 815 km, 98.5° (Epoch: 21 September)

Date Brightness Start Highest point End Pass type
(mag) Time Alt. Az. Time Alt. Az. Time Alt. Az.
21 Sep 11.0 03:00:20 10° NNE 03:01:48 18° NE 03:01:48 18° NE visible
21 Sep 10.3 04:41:02 10° NNW 04:43:01 18° NW 04:43:01 18° NW visible
22 Sep 11.5 02:38:19 10° NE 02:38:46 12° NE 02:38:46 12° NE visible
22 Sep 10.2 04:17:44 10° N 04:19:59 23° NNW 04:19:59 23° NNW visible
23 Sep 10.3 03:54:46 10° N 03:56:56 25° N 03:56:56 25° N visible
24 Sep 10.6 03:32:03 10° NNE 03:33:54 22° NNE 03:33:54 22° NNE visible
25 Sep 11.0 03:09:34 10° NNE 03:10:52 18° NNE 03:10:52 18° NNE visible
25 Sep 10.6 04:50:51 10° NNW 04:52:04 14° NW 04:52:04 14° NW visible
26 Sep 11.4 02:47:22 10° NE 02:47:49 12° NE 02:47:49 12° NE visible
26 Sep 10.4 04:27:21 10° NNW 04:29:02 18° NNW 04:29:02 18° NNW visible
27 Sep 10.5 04:04:16 10° N 04:05:59 20° N 04:05:59 20° N visible
28 Sep 10.7 03:41:26 10° N 03:42:57 20° N 03:42:57 20° N visible
29 Sep 11.0 03:18:50 10° NNE 03:19:54 16° NNE 03:19:54 16° NNE visible
29 Sep 10.8 05:00:50 10° NW 05:01:07 11° NW 05:01:07 11° NW visible
30 Sep 11.4 02:56:31 10° NNE 02:56:52 12° NNE 02:56:52 12° NNE visible
30 Sep 10.6 04:37:01 10° NNW 04:38:04 14° NNW 04:38:04 14° NNW visible
